User: anonymous   Login
Location: Nitra
(48.3167°N, 18.0833°E)
Time: 18:25:12
(UTC+02:00)
Language:

STARLINK-1707 - Orbit

View from above orbital plane
View from above orbital plane
View from above satellite
View from above satellite

Ground track
Ground track

The orbit data is extracted from the following two-line orbital elements,

1 46359C 20062AM  21174.40593860  .00007539  00000-0  50525-3 0  1746
2 46359  53.0549 134.2782 0001162  44.3872 172.2285 15.06382615    15
Epoch (UTC): 23 June 2021 09:44:33
Eccentricity: 0.0001162
inclination: 53.0549°
perigee height: 546 km
apogee height: 548 km
right ascension of ascending node: 134.2782°
argument of perigee: 44.3872°
revolutions per day: 15.06382615
mean anomaly at epoch: 172.2285°
orbit number at epoch: 1

The dashed part of the orbit path shows where the satellite is in the earth's shadow,  

DLR